Regional Weather Roundup
Issued by NWS

Home | Current Version | Previous Version | Text Only | Print | Product List | Glossary On
Versions: 1 2 3 4 5 6 7 8 9 10 11 12 13 14 15 16 17 18 19 20 21 22 23 24 25 26 27 28 29 30 31 32 33 34 35 36 37 38 39 40 41 42 43 44 45 46 47 48 49 50
000
ASUS43 KOAX 210002
RWRNE

WEATHER ROUNDUP FOR NEBRASKA
NATIONAL WEATHER SERVICE OMAHA NE
700 PM CDT MON APR 20 2015

NOTES: SATELLITE DATA IS BEING USED TO AUGMENT CLOUD COVER ABOVE
       12000 FEET.
       "FAIR" INDICATES FEW OR NO CLOUDS BELOW 12,000 FEET WITH NO
       SIGNIFICANT WEATHER AND/OR OBSTRUCTIONS TO VISIBILITY.

  * THESE STATIONS DO NOT REPORT WEATHER SUCH AS RAIN...SNOW OR FOG.

NEZ001>004-019>022-054>056-210100-
NEBRASKA PANHANDLE

CITY           SKY/WX    TMP DP  RH WIND       PRES   REMARKS
SCOTTSBLUFF    SUNNY     57  24  28 NW18      29.85F
6HR MIN TEMP:  50; 6HR MAX TEMP:  57;

ALLIANCE       MOSUNNY   53  21  28 NW14G25   29.84S
6HR MIN TEMP:  48; 6HR MAX TEMP:  55;

CHADRON        SUNNY     55  22  27 NW20G29   29.83F
6HR MIN TEMP:  49; 6HR MAX TEMP:  57;

SIDNEY         SUNNY     53  24  32 N17       29.87F
6HR MIN TEMP:  48; 6HR MAX TEMP:  55;

$$

NEZ057>060-069>072-079>082-210100-
SOUTHWEST NEBRASKA

CITY           SKY/WX    TMP DP  RH WIND       PRES   REMARKS
NORTH PLATTE   PTSUNNY   53  23  31 NW17G25   29.84F
6HR MIN TEMP:  51; 6HR MAX TEMP:  57;

IMPERIAL       PTSUNNY   55  26  32 NW15      29.87R
6HR MIN TEMP:  48; 6HR MAX TEMP:  57;

MCCOOK         MOSUNNY   59  24  26 NW18G29   29.85F
6HR MIN TEMP:  55; 6HR MAX TEMP:  62;

$$

NEZ005>010-023>029-035>040-094-210100-
NORTH CENTRAL NEBRASKA

CITY           SKY/WX    TMP DP  RH WIND       PRES   REMARKS
VALENTINE      CLOUDY    51  19  28 NW20G31   29.82S
6HR MIN TEMP:  49; 6HR MAX TEMP:  54;

AINSWORTH      PTSUNNY   51  19  27 NW22      29.82S
BROKEN BOW     MOSUNNY   55  22  27 N18       29.83S
6HR MIN TEMP:  53; 6HR MAX TEMP:  58;

ORD            PTSUNNY   52  24  33 NW16      29.81R
6HR MIN TEMP:  51; 6HR MAX TEMP:  56;

$$

NEZ041-046>049-061>064-073>077-083>087-210100-
SOUTH CENTRAL NEBRASKA

CITY           SKY/WX    TMP DP  RH WIND       PRES   REMARKS
GRAND ISLAND   MOSUNNY   56  23  27 NW20G30   29.82S
6HR MIN TEMP:  52; 6HR MAX TEMP:  58;

HASTINGS       MOSUNNY   56  27  32 NW16      29.83S
6HR MIN TEMP:  53; 6HR MAX TEMP:  58;

KEARNEY *      MOSUNNY   55  21  26 NW13      29.84S
YORK           MOSUNNY   55  23  28 NW20      29.81S
$$

NEZ011>018-030>034-042>045-210100-
NORTHEAST NEBRASKA

CITY           SKY/WX    TMP DP  RH WIND       PRES   REMARKS
NORFOLK        MOSUNNY   54  16  22 NW17G32   29.76R
6HR MIN TEMP:  54; 6HR MAX TEMP:  57;

COLUMBUS *     MOSUNNY   54  19  26 NW18G29   29.80R
TEKAMAH        SUNNY     55  17  22 NW26G37   29.74S
6HR MIN TEMP:  53; 6HR MAX TEMP:  58;

$$

NEZ050>053-065>068-078-088>093-210100-
SOUTHEAST NEBRASKA

CITY           SKY/WX    TMP DP  RH WIND       PRES   REMARKS
LINCOLN        MOSUNNY   57  19  22 NW16      29.80S
6HR MIN TEMP:  55; 6HR MAX TEMP:  60;

OMAHA EPPLEY   MOSUNNY   57  19  22 NW23G31   29.75R
6HR MIN TEMP:  53; 6HR MAX TEMP:  59;

FALLS CITY     PTSUNNY   57  24  28 NW20      29.80S
6HR MIN TEMP:  53; 6HR MAX TEMP:  60;

PLATTSMOUTH    MOSUNNY   55  13  19 NW18G30   29.77S
$$

NEZ044-045-051>053-067-210100-
OMAHA AREA

CITY           SKY/WX    TMP DP  RH WIND       PRES   REMARKS
OMAHA EPPLEY   MOSUNNY   57  19  22 NW23G31   29.75R
6HR MIN TEMP:  53; 6HR MAX TEMP:  59;

OFFUTT AFB     MOSUNNY   56  20  24 NW21G31   29.75S
PLATTSMOUTH    MOSUNNY   55  13  19 NW18G30   29.77S
$$



USA.gov is the U.S. government's official web portal to all federal, state and local government web resources and services.